Weather History for Cape Girardeau, MO

Change the Weather History Date:

Sunday, January 20, 2013

  Actual Average Record
Temperature  
Mean Temperature 37 °F 33 °F  
Max Temperature 44 °F 42 °F 63 °F (1974)
Min Temperature 29 °F 24 °F -15 °F (1985)
Degree Days  
Heating Degree Days 28 32  
Month to date heating degree days 575 640  
Since 1 July heating degree days 2199 2391  
Cooling Degree Days 0 0  
Month to date cooling degree days 0 0  
Year to date cooling degree days 0 0  
Moisture  
Dew Point 23 °F    
Average Humidity 65    
Maximum Humidity 96    
Minimum Humidity 33    
Precipitation  
Precipitation 0.00 in 0.11 in 1.36 in (1993)
Month to date precipitation 2.71 2.22  
Year to date precipitation 2.71 2.22  
Sea Level Pressure  
Sea Level Pressure 30.25 in    
Wind  
Wind Speed 7 mph (North)    
Max Wind Speed 17 mph    
Max Gust Speed 20 mph    
Visibility 10 miles    
Events      
T = Trace of Precipitation, MM = Missing Value Source: NWS Daily Summary

Daily Weather History Graph

Daily Weather History Graph

Search for Another Location

Airport:

Trip Planner

Search our weather history database for the weather conditions in past years. The results will help you decide how hot, cold, wet, or windy it might be!

Date:

Astronomy

Jan. 20, 2013 Rise Set
Actual Time 7:09 AM CST 5:10 PM CST
Civil Twilight 6:40 AM CST 5:38 PM CST
Nautical Twilight 6:09 AM CST 6:10 PM CST
Astronomical Twilight 5:38 AM CST 6:41 PM CST
Moon 12:10 PM CST 1:42 AM CST
Length of Visible Light 10h 57m
Length of Day
10h 01m
Waxing Gibbous, 66% of the Moon is Illuminated
Jan 20
Waxing Gibbous
Jan 26
Full
Feb 3
Last Quarter
Feb 10
New
Feb 17
First Quarter

Hourly Weather History & Observations

Time (CST) Temp. Windchill Dew Point Humidity Pressure Visibility Wind Dir Wind Speed Gust Speed Precip Events Conditions
12:53 AM 37.9 °F 33.5 °F 34.0 °F 86% 30.15 in 10.0 mi West 5.8 mph - N/A   Clear
1:53 AM 35.1 °F 31.0 °F 33.1 °F 92% 30.17 in 10.0 mi West 4.6 mph - N/A   Clear
2:53 AM 34.0 °F 29.8 °F 32.0 °F 92% 30.18 in 10.0 mi West 4.6 mph - N/A   Clear
3:53 AM 33.1 °F - 30.9 °F 92% 30.20 in 10.0 mi Calm Calm - N/A   Clear
4:53 AM 30.9 °F 26.2 °F 28.9 °F 92% 30.22 in 10.0 mi NW 4.6 mph - N/A   Clear
5:53 AM 34.0 °F 29.8 °F 28.0 °F 79% 30.25 in 10.0 mi WNW 4.6 mph - N/A   Clear
6:53 AM 35.1 °F 28.6 °F 25.0 °F 67% 30.26 in 10.0 mi North 8.1 mph - N/A   Clear
7:53 AM 35.1 °F 28.6 °F 25.0 °F 67% 30.28 in 10.0 mi North 8.1 mph - N/A   Clear
8:53 AM 37.9 °F 29.2 °F 26.1 °F 62% 30.31 in 10.0 mi NNE 15.0 mph - N/A   Clear
9:53 AM 37.9 °F 32.1 °F 25.0 °F 60% 30.33 in 10.0 mi North 8.1 mph - N/A   Clear
10:53 AM 39.9 °F 35.1 °F 24.1 °F 53% 30.32 in 10.0 mi NE 6.9 mph - N/A   Clear
11:53 AM 42.1 °F 36.6 °F 18.0 °F 38% 30.29 in 10.0 mi NE 9.2 mph - N/A   Clear
12:53 PM 43.0 °F 38.2 °F 18.0 °F 37% 30.27 in 10.0 mi NNE 8.1 mph - N/A   Clear
1:53 PM 42.1 °F 39.2 °F 17.1 °F 37% 30.25 in 10.0 mi SSW 4.6 mph - N/A   Clear
2:53 PM 44.1 °F 40.1 °F 17.1 °F 34% 30.25 in 10.0 mi NNW 6.9 mph - N/A   Clear
3:53 PM 42.1 °F 36.6 °F 19.0 °F 40% 30.25 in 10.0 mi North 9.2 mph - N/A   Clear
4:53 PM 39.0 °F 33.4 °F 19.9 °F 46% 30.26 in 10.0 mi North 8.1 mph - N/A   Clear
5:53 PM 35.1 °F 28.6 °F 19.0 °F 52% 30.26 in 10.0 mi NNE 8.1 mph - N/A   Clear
6:53 PM 35.1 °F 26.4 °F 18.0 °F 50% 30.26 in 10.0 mi NE 12.7 mph - N/A   Clear
7:53 PM 33.1 °F 24.4 °F 18.0 °F 54% 30.26 in 10.0 mi NE 11.5 mph - N/A   Clear
8:53 PM 30.9 °F 26.2 °F 19.0 °F 61% 30.25 in 10.0 mi NNE 4.6 mph - N/A   Clear
9:53 PM 30.0 °F 24.1 °F 19.0 °F 64% 30.26 in 10.0 mi North 5.8 mph - N/A   Clear
10:53 PM 28.9 °F 21.1 °F 19.0 °F 67% 30.27 in 10.0 mi NNE 8.1 mph - N/A   Clear
11:53 PM 28.9 °F 21.1 °F 18.0 °F 64% 30.27 in 10.0 mi North 8.1 mph - N/A   Clear